When you browse on this site, cookies collect data to enhance your experience and personalize the content and advertising you see.
Visit our Privacy Policy to learn more. By continuing to use the site, you agree to this use of cookies and data.
  • In Italy
  • List of Countries
  • For 7 days
  • Water Temperature
  • Satellite Maps
  • Weather Map
  • Weather Widgets
  • user-avatar
    Login

    Hourly Weather Tappita

    Today, 12 December, Wednesday

    Time Temperature Precipitation Wind Pressure Humidity
    00:00 +25°C° 0.2 mm 1 mps 738 mmHg 90%
    01:00 +23°C° 0.2 mm 0 mps 738 mmHg 92%
    02:00 +23°C° 0.2 mm 0 mps 738 mmHg 93%
    03:00 +22°C° 0.1 mm 0 mps 738 mmHg 94%
    04:00 +22°C° 0.1 mm 0 mps 738 mmHg 94%
    05:00 +22°C° 0 mm 0 mps 738 mmHg 96%
    06:00 +23°C° 0 mm 0 mps 738 mmHg 89%
    07:00 +25°C° 0 mm 0 mps 739 mmHg 81%
    08:00 +27°C° 0 mm 0 mps 739 mmHg 74%
    09:00 +29°C° 0 mm 0 mps 739 mmHg 64%
    10:00 +31°C° 0 mm 0 mps 739 mmHg 54%
    11:00 +34°C° 0 mm 0 mps 738 mmHg 45%
    12:00 +33°C° 0 mm 0 mps 738 mmHg 44%
    13:00 +33°C° 0 mm 0 mps 737 mmHg 44%
    14:00 +35°C° 0 mm 1 mps 737 mmHg 44%
    15:00 +33°C° 0.2 mm 1 mps 737 mmHg 51%
    16:00 +31°C° 0.2 mm 1 mps 737 mmHg 59%
    17:00 +29°C° 0.2 mm 1 mps 737 mmHg 66%
    18:00 +28°C° 0.3 mm 1 mps 738 mmHg 73%
    19:00 +27°C° 0.3 mm 1 mps 738 mmHg 80%
    20:00 +26°C° 0.3 mm 1 mps 739 mmHg 87%
    21:00 +25°C° 0.1 mm 1 mps 739 mmHg 89%
    22:00 +25°C° 0.1 mm 1 mps 739 mmHg 91%
    23:00 +23°C° 0.1 mm 0 mps 739 mmHg 93%

    Tomorrow, 13 December, Thursday

    Time Temperature Precipitation Wind Pressure Humidity
    00:00 +23°C° 0.1 mm 0 mps 739 mmHg 94%
    01:00 +22°C° 0.1 mm 0 mps 739 mmHg 95%
    02:00 +22°C° 0.1 mm 0 mps 738 mmHg 95%
    03:00 +22°C° 0 mm 0 mps 738 mmHg 95%
    04:00 +22°C° 0 mm 0 mps 738 mmHg 95%
    05:00 +22°C° 0 mm 0 mps 738 mmHg 95%
    06:00 +23°C° 0 mm 0 mps 739 mmHg 91%
    07:00 +24°C° 0 mm 0 mps 739 mmHg 88%
    08:00 +24°C° 0 mm 0 mps 740 mmHg 85%
    09:00 +27°C° 0.1 mm 0 mps 739 mmHg 73%
    10:00 +30°C° 0.1 mm 0 mps 739 mmHg 62%
    11:00 +33°C° 0.1 mm 0 mps 739 mmHg 50%
    12:00 +32°C° 0.8 mm 0 mps 738 mmHg 52%
    13:00 +34°C° 0.8 mm 1 mps 738 mmHg 53%
    14:00 +33°C° 0.8 mm 1 mps 737 mmHg 55%
    15:00 +32°C° 0.4 mm 1 mps 737 mmHg 59%
    16:00 +31°C° 0.4 mm 1 mps 737 mmHg 64%
    17:00 +29°C° 0.4 mm 1 mps 737 mmHg 69%
    18:00 +28°C° 0.4 mm 1 mps 738 mmHg 74%
    19:00 +27°C° 0.4 mm 1 mps 739 mmHg 80%
    20:00 +26°C° 0.4 mm 1 mps 739 mmHg 85%
    21:00 +26°C° 0.2 mm 1 mps 739 mmHg 87%
    22:00 +25°C° 0.2 mm 1 mps 739 mmHg 90%
    23:00 +25°C° 0.2 mm 1 mps 740 mmHg 92%

    Day after tomorrow, 14 December, Friday

    Time Temperature Precipitation Wind Pressure Humidity
    00:00 +23°C° 0 mm 0 mps 739 mmHg 93%
    01:00 +22°C° 0 mm 0 mps 739 mmHg 95%
    02:00 +22°C° 0 mm 0 mps 738 mmHg 96%
    03:00 +22°C° 0 mm 0 mps 738 mmHg 96%
    04:00 +22°C° 0 mm 0 mps 738 mmHg 97%
    05:00 +22°C° 0 mm 0 mps 738 mmHg 98%
    06:00 +23°C° 0 mm 0 mps 739 mmHg 91%
    07:00 +25°C° 0 mm 0 mps 739 mmHg 84%
    08:00 +26°C° 0 mm 0 mps 740 mmHg 78%
    09:00 +29°C° 0 mm 0 mps 740 mmHg 68%
    10:00 +31°C° 0 mm 0 mps 740 mmHg 58%
    11:00 +33°C° 0 mm 0 mps 739 mmHg 48%
    12:00 +35°C° 0.1 mm 1 mps 739 mmHg 47%
    13:00 +35°C° 0.1 mm 1 mps 738 mmHg 45%
    14:00 +35°C° 0.1 mm 1 mps 737 mmHg 44%
    15:00 +33°C° 0 mm 1 mps 737 mmHg 49%
    16:00 +32°C° 0 mm 1 mps 737 mmHg 53%
    17:00 +31°C° 0 mm 1 mps 737 mmHg 58%
    18:00 +29°C° 0.1 mm 1 mps 738 mmHg 66%
    19:00 +28°C° 0.1 mm 1 mps 739 mmHg 73%
    20:00 +27°C° 0.1 mm 1 mps 740 mmHg 80%
    21:00 +26°C° 0 mm 1 mps 740 mmHg 84%
    22:00 +26°C° 0 mm 1 mps 740 mmHg 88%
    23:00 +23°C° 0 mm 0 mps 740 mmHg 92%

    15 December, Saturday

    Time Temperature Precipitation Wind Pressure Humidity
    00:00 +23°C° 0 mm 0 mps 739 mmHg 94%
    01:00 +23°C° 0 mm 0 mps 739 mmHg 95%
    02:00 +22°C° 0 mm 0 mps 738 mmHg 97%
    03:00 +22°C° 0 mm 0 mps 739 mmHg 97%
    04:00 +22°C° 0 mm 0 mps 739 mmHg 98%
    05:00 +22°C° 0 mm 0 mps 739 mmHg 98%
    06:00 +23°C° 0 mm 0 mps 740 mmHg 90%
    07:00 +25°C° 0 mm 0 mps 740 mmHg 83%
    08:00 +27°C° 0 mm 0 mps 741 mmHg 75%
    09:00 +30°C° 0 mm 1 mps 740 mmHg 68%
    10:00 +32°C° 0 mm 1 mps 740 mmHg 60%
    11:00 +33°C° 0 mm 1 mps 740 mmHg 52%
    12:00 +34°C° 0 mm 1 mps 739 mmHg 47%
    13:00 +35°C° 0 mm 1 mps 738 mmHg 43%
    14:00 +36°C° 0 mm 1 mps 737 mmHg 38%
    15:00 +34°C° 0 mm 1 mps 737 mmHg 42%
    16:00 +33°C° 0 mm 1 mps 737 mmHg 46%
    17:00 +31°C° 0 mm 1 mps 737 mmHg 49%
    18:00 +30°C° 0 mm 1 mps 738 mmHg 56%
    19:00 +28°C° 0 mm 1 mps 739 mmHg 63%
    20:00 +27°C° 0 mm 1 mps 739 mmHg 70%
    21:00 +26°C° 0 mm 1 mps 739 mmHg 76%
    22:00 +26°C° 0 mm 1 mps 739 mmHg 82%
    23:00 +25°C° 0 mm 1 mps 739 mmHg 89%

    16 December, Sunday

    Time Temperature Precipitation Wind Pressure Humidity
    00:00 +25°C° 0 mm 1 mps 739 mmHg 91%
    01:00 +25°C° 0 mm 1 mps 739 mmHg 93%
    02:00 +24°C° 0 mm 1 mps 738 mmHg 96%
    03:00 +23°C° 0.1 mm 0 mps 738 mmHg 95%
    04:00 +23°C° 0.1 mm 0 mps 739 mmHg 94%
    05:00 +23°C° 0.1 mm 0 mps 739 mmHg 93%
    06:00 +24°C° 0.1 mm 0 mps 739 mmHg 87%
    07:00 +27°C° 0.1 mm 1 mps 740 mmHg 81%
    08:00 +28°C° 0.1 mm 1 mps 740 mmHg 75%
    09:00 +31°C° 0 mm 1 mps 740 mmHg 63%
    10:00 +33°C° 0 mm 1 mps 740 mmHg 51%
    11:00 +34°C° 0 mm 0 mps 739 mmHg 39%
    12:00 +36°C° 0 mm 1 mps 738 mmHg 35%
    13:00 +37°C° 0 mm 1 mps 738 mmHg 32%
    14:00 +37°C° 0 mm 1 mps 737 mmHg 28%
    15:00 +35°C° 0 mm 1 mps 737 mmHg 32%
    16:00 +32°C° 0 mm 0 mps 737 mmHg 36%
    17:00 +30°C° 0 mm 0 mps 737 mmHg 40%
    18:00 +30°C° 0 mm 1 mps 738 mmHg 48%
    19:00 +28°C° 0 mm 1 mps 738 mmHg 57%
    20:00 +27°C° 0 mm 1 mps 739 mmHg 65%
    21:00 +26°C° 0 mm 1 mps 739 mmHg 73%
    22:00 +26°C° 0 mm 1 mps 739 mmHg 80%
    23:00 +25°C° 0 mm 1 mps 739 mmHg 88%

    17 December, Monday

    Time Temperature Precipitation Wind Pressure Humidity
    00:00 +25°C° 0 mm 1 mps 739 mmHg 90%
    01:00 +25°C° 0 mm 1 mps 738 mmHg 92%
    02:00 +23°C° 0 mm 0 mps 738 mmHg 94%
    03:00 +23°C° 0.1 mm 0 mps 738 mmHg 93%
    04:00 +23°C° 0.1 mm 0 mps 738 mmHg 93%
    05:00 +23°C° 0.1 mm 0 mps 738 mmHg 92%
    06:00 +24°C° 0 mm 0 mps 739 mmHg 86%
    07:00 +25°C° 0 mm 0 mps 739 mmHg 81%
    08:00 +28°C° 0 mm 1 mps 740 mmHg 75%
    09:00 +30°C° 0 mm 1 mps 739 mmHg 64%
    10:00 +33°C° 0 mm 1 mps 739 mmHg 54%
    11:00 +35°C° 0 mm 1 mps 739 mmHg 43%
    12:00 +34°C° 0 mm 0 mps 738 mmHg 39%
    13:00 +35°C° 0 mm 0 mps 737 mmHg 35%
    14:00 +36°C° 0 mm 0 mps 737 mmHg 31%
    15:00 +34°C° 0 mm 0 mps 737 mmHg 36%
    16:00 +32°C° 0 mm 0 mps 737 mmHg 40%
    17:00 +32°C° 0 mm 1 mps 737 mmHg 45%
    18:00 +30°C° 0 mm 1 mps 737 mmHg 53%
    19:00 +29°C° 0 mm 1 mps 738 mmHg 61%
    20:00 +27°C° 0 mm 1 mps 739 mmHg 69%
    21:00 +27°C° 0 mm 1 mps 739 mmHg 75%
    22:00 +26°C° 0 mm 1 mps 739 mmHg 80%
    23:00 +23°C° 0 mm 0 mps 739 mmHg 86%
    Show more